User: anonymous   Login
Location: Unspecified
(0.0000°N, 0.0000°E)
Time: 14:41:12
(UTC+00:00)
Language:

UKube-1 - Orbit

View from above orbital plane
View from above orbital plane
View from above satellite
View from above satellite

Ground track
Ground track

The orbit data is extracted from the following two-line orbital elements,

1 40074U 14037F   21330.87407574  .00000536  00000-0  70325-4 0  9996
2 40074  98.4064 195.7024 0003255 216.9104 143.1898 14.84739348400003
Epoch (UTC): 26 November 2021 20:58:40
Eccentricity: 0.0003255
inclination: 98.4064°
perigee height: 612 km
apogee height: 616 km
right ascension of ascending node: 195.7024°
argument of perigee: 216.9104°
revolutions per day: 14.84739348
mean anomaly at epoch: 143.1898°
orbit number at epoch: 40000

The dashed part of the orbit path shows where the satellite is in the earth's shadow,  

DLR